Weather in Saint Paul

United States     44°56′34″N   93°06′06″W
В апреле 2022 года жителям России запретили посещать сайт meteo.paraplan.net по решению Генеральной прокуратуры. Аудитория сайта уменьшилась в 10 раз. Владельцы сайта не видят смысла в поддержке погодного сервера в таких условиях. Сайт будет закрыт в октябре.
temp.,
°C
wind,
m/s
gust,
m/s
humid.,
%
clouds,
%
prec.,
mm/h
press.,
hPa
HPBL,
m
4 october, tue
tue401:00+16s31053100 0.0 1021251
04:00+16s3751100 0.0 1021211
07:00+15sse375699 0.0 1021198
10:00+19s4645100 0.0 1020425
13:00+25s4631100 0.0 10181276
16:00+26ssw4627100 0.0 10161786
19:00+22s3733100 0.0 1016253
22:00+19s3837100 0.0 1016213
5 october, wed
wed501:00+18se2242100 0.0 101642
04:00+17s2741100 0.0 1015266
07:00+16sw3758100 0.0 1015253
10:00+18sw4664100 0.0 1015624
13:00+19wnw2461100 0.0 1015631
16:00+19nw125911 0.1 1014430
19:00+17wnw1169100 0.4 101416
22:00+16n128198 0.3 101540
6 october, thu
thu601:00+15wnw1183100 0.3 101513
04:00+15nnw398196 0.0 1016312
07:00+12n6128246 0.0 1019769
10:00+11n7116994 0.0 1023927
13:00+11n684834 0.0 10251316
16:00+13n673821 0.0 10261949
19:00+7n5982100 0.2 1030883
22:00+6nne487768 0.0 1031636
7 october, fri
fri701:00+5nne477882 0.1 1032411
04:00+5n3567100 0.0 1033542
07:00+4n256349 0.0 1033550
10:00+7n23465 0.0 10331197
13:00+10nw343275 0.0 10311503
16:00+12wnw34244 0.0 10281628
19:00+9wnw12295 0.0 102733
22:00+8wsw263240 0.0 1027240
8 october, sat
sat801:00+7sw36358 0.0 1026184
04:00+6sw393866 0.0 1025281
07:00+6wsw3103972 0.0 1024286
10:00+11wsw593027 0.0 1023434
13:00+18wsw58235 0.0 10201108
16:00+21w58242 0.0 10161921
19:00+16wnw24360 0.0 101684
22:00+12nne25490 0.0 1018123